Marion Reef Observation History
Time Wind Speed Temp Pressure Rel. Hum Rain
25/12:30pm SSE 13-16 kts 27.2°c 1006.3 hPa n/a n/a
25/12:00pm SSE 13-15 kts 26.8°c 1006.7 hPa n/a n/a
25/11:30am SSE 13-15 kts 27.2°c 1006.9 hPa n/a n/a
25/11:00am SE 13-15 kts 27.0°c 1007.1 hPa n/a n/a
25/10:30am SE 12-15 kts 27.1°c 1007.4 hPa n/a n/a
25/10:00am SE 11-14 kts 26.8°c 1007.6 hPa n/a n/a
25/09:30am SE 15-18 kts 26.6°c 1007.9 hPa n/a n/a
25/09:00am ESE 13-15 kts 27.1°c 1007.7 hPa n/a n/a
25/08:30am SE 11-13 kts 27.6°c 1007.8 hPa n/a n/a
25/08:00am ESE 12-14 kts 27.5°c 1007.6 hPa n/a n/a
25/07:30am ESE 11-13 kts 27.6°c 1007.3 hPa n/a n/a
25/07:00am E 11-13 kts 27.5°c 1007.4 hPa n/a n/a
25/06:30am E 12-14 kts 27.2°c 1007.1 hPa n/a n/a
25/06:00am E 11-13 kts 27.2°c 1006.7 hPa n/a n/a
25/05:30am ESE 11-13 kts 27.3°c 1006.4 hPa n/a n/a
25/05:00am ESE 12-14 kts 27.2°c 1006.2 hPa n/a n/a
25/04:30am ESE 11-13 kts 27.3°c 1005.9 hPa n/a n/a
25/04:00am ESE 12-14 kts 27.2°c 1005.9 hPa n/a n/a
25/03:30am ESE 11-13 kts 27.3°c 1006.0 hPa n/a n/a
25/03:00am ESE 12-14 kts 27.1°c 1006.1 hPa n/a n/a
25/02:30am ESE 14-16 kts 27.2°c 1006.1 hPa n/a n/a
25/02:00am ESE 13-16 kts 27.1°c 1006.3 hPa n/a n/a
25/01:30am ESE 12-14 kts 27.3°c 1006.4 hPa n/a n/a
25/01:00am ESE 14-16 kts 27.4°c 1006.8 hPa n/a n/a
25/12:30am ESE 15-17 kts 27.3°c 1006.9 hPa n/a n/a
25/12:00am E 14-17 kts 27.3°c 1007.3 hPa n/a n/a
Time Wind Speed Temp Pressure Rel. Hum Rain
24/11:30pm ESE 14-16 kts 27.4°c 1007.6 hPa n/a n/a
24/11:00pm ESE 15-17 kts 27.5°c 1008.0 hPa n/a n/a
24/10:30pm ESE 16-19 kts 27.4°c 1008.2 hPa n/a n/a
24/10:00pm E 18-19 kts 27.5°c 1008.2 hPa n/a n/a
24/09:30pm E 17-19 kts 27.7°c 1008.2 hPa n/a n/a
24/09:00pm E 18-21 kts 27.7°c 1007.9 hPa n/a n/a
24/08:30pm E 18-21 kts 27.6°c 1007.7 hPa n/a n/a
24/08:00pm E 17-19 kts 27.6°c 1007.6 hPa n/a n/a
24/07:30pm E 16-18 kts 27.6°c 1007.5 hPa n/a n/a
24/07:00pm E 15-19 kts 27.6°c 1007.4 hPa n/a n/a
24/06:30pm E 16-18 kts 27.8°c 1007.2 hPa n/a n/a
24/06:00pm E 16-18 kts 27.6°c 1007.0 hPa n/a n/a
24/05:30pm ESE 16-17 kts 27.9°c 1006.7 hPa n/a n/a
24/05:00pm ESE 15-19 kts 27.6°c 1006.4 hPa n/a n/a
24/04:30pm ESE 15-17 kts 27.7°c 1006.2 hPa n/a n/a
24/04:00pm ESE 16-18 kts 27.7°c 1006.1 hPa n/a n/a
24/03:30pm ESE 15-19 kts 27.8°c 1006.0 hPa n/a n/a
24/03:00pm ESE 17-18 kts 27.6°c 1006.0 hPa n/a n/a
24/02:30pm ESE 15-18 kts 27.7°c 1006.4 hPa n/a n/a
24/02:00pm ESE 16-18 kts 27.8°c 1006.7 hPa n/a n/a
24/01:30pm ESE 14-16 kts 27.8°c 1007.2 hPa n/a n/a
24/01:00pm ESE 14-16 kts 27.8°c 1007.6 hPa n/a n/a
24/12:30pm ESE 13-14 kts 27.8°c 1007.8 hPa n/a n/a
24/12:00pm ESE 14-16 kts 27.7°c 1008.0 hPa n/a n/a
24/11:30am SE 13-16 kts 27.5°c 1008.5 hPa n/a n/a
24/11:00am ESE 12-14 kts 27.7°c 1008.9 hPa n/a n/a
24/10:30am ESE 13-14 kts 27.4°c 1009.3 hPa n/a n/a
24/10:00am ESE 12-14 kts 27.4°c 1009.6 hPa n/a n/a
24/09:30am ESE 13-14 kts 27.6°c 1009.7 hPa n/a n/a
24/09:00am ESE 13-15 kts 27.7°c 1009.6 hPa n/a n/a
24/08:30am ESE 14-16 kts 27.4°c 1009.6 hPa n/a n/a
24/08:00am ESE 14-16 kts 27.4°c 1009.6 hPa n/a n/a
24/07:30am SE 13-14 kts 27.3°c 1009.4 hPa n/a n/a
24/07:00am SE 13-15 kts 27.2°c 1009.3 hPa n/a n/a
24/06:30am SE 14-17 kts 27.2°c 1009.1 hPa n/a n/a
24/06:00am SE 14-17 kts 27.1°c 1008.8 hPa n/a n/a
24/05:30am SE 15-18 kts 27.0°c 1008.1 hPa n/a n/a
24/05:00am SE 15-18 kts 26.9°c 1008.0 hPa n/a n/a
24/04:30am SSE 15-18 kts 26.5°c 1007.7 hPa n/a n/a
24/04:00am SE 16-20 kts 26.0°c 1007.7 hPa n/a n/a
24/03:30am S 13-15 kts 26.4°c 1007.9 hPa n/a n/a
24/03:00am S 13-15 kts 25.9°c 1008.0 hPa n/a n/a
24/02:30am SSE 15-17 kts 25.9°c 1008.3 hPa n/a n/a
24/02:00am SSE 17-20 kts 26.2°c 1008.6 hPa n/a n/a
24/01:30am SE 15-17 kts 25.9°c 1008.9 hPa n/a n/a
24/01:00am SE 18-22 kts 25.7°c 1009.2 hPa n/a n/a
24/12:30am SE 15-17 kts 26.4°c 1009.6 hPa n/a n/a
24/12:00am ESE 16-19 kts 26.5°c 1009.8 hPa n/a n/a
Time Wind Speed Temp Pressure Rel. Hum Rain
23/11:30pm SE 17-19 kts 26.3°c 1010.2 hPa n/a n/a
23/11:00pm SE 17-20 kts 26.8°c 1010.3 hPa n/a n/a
23/10:30pm SSE 16-20 kts 26.2°c 1010.6 hPa n/a n/a
23/10:00pm SSE 19-23 kts 25.2°c 1010.8 hPa n/a n/a
23/09:30pm SSE 22-25 kts 25.3°c 1010.6 hPa n/a n/a
23/09:00pm SSE 23-27 kts 25.4°c 1010.4 hPa n/a n/a
23/08:30pm SSE 23-27 kts 25.5°c 1010.1 hPa n/a n/a
23/08:00pm SSE 21-25 kts 26.0°c 1009.8 hPa n/a n/a
23/07:30pm SE 17-19 kts 26.9°c 1009.6 hPa n/a n/a
23/07:00pm SE 18-21 kts 27.2°c 1009.5 hPa n/a n/a
23/06:30pm SE 18-21 kts 27.1°c 1009.4 hPa n/a n/a
23/06:00pm ESE 19-22 kts 26.4°c 1008.9 hPa n/a n/a
23/05:30pm ESE 21-24 kts 26.0°c 1008.8 hPa n/a n/a
23/05:00pm ESE 24-28 kts 25.4°c 1008.4 hPa n/a n/a
23/04:30pm SE 18-21 kts 27.1°c 1008.1 hPa n/a n/a
23/04:00pm SE 18-23 kts 27.1°c 1007.7 hPa n/a n/a
23/03:30pm SE 18-20 kts 27.5°c 1007.7 hPa n/a n/a
23/03:00pm ESE 17-20 kts 27.4°c 1007.8 hPa n/a n/a
23/02:30pm ESE 13-15 kts 26.7°c 1008.2 hPa n/a n/a
23/02:00pm ENE 14-16 kts 25.3°c 1008.4 hPa n/a n/a
23/01:30pm ENE 14-18 kts 24.6°c 1008.6 hPa n/a n/a
23/01:00pm ENE 16-18 kts 23.7°c 1008.9 hPa n/a n/a
23/12:30pm ENE 16-19 kts 24.4°c 1009.1 hPa n/a n/a
23/12:00pm E 18-21 kts 25.3°c 1009.1 hPa n/a n/a
23/11:30am ESE 20-23 kts 26.2°c 1008.9 hPa n/a n/a
23/11:00am SE 18-21 kts 26.8°c 1009.2 hPa n/a n/a
23/10:30am SE 19-21 kts 26.9°c 1009.4 hPa n/a n/a
23/10:00am SE 19-23 kts 26.3°c 1009.4 hPa n/a n/a
23/09:30am SE 19-22 kts 26.3°c 1009.4 hPa n/a n/a
23/09:00am ESE 10-25 kts 25.3°c 1009.3 hPa n/a n/a
23/08:36am ESE 16-28 kts 25.1°c 1009.1 hPa n/a n/a
23/08:35am ESE 15-24 kts 25.1°c 1009.2 hPa n/a n/a
23/08:30am ESE 11-14 kts 25.5°c 1009.3 hPa n/a n/a
23/08:00am ESE 18-21 kts 25.2°c 1009.5 hPa n/a n/a
23/07:30am ESE 23-27 kts 24.7°c 1009.1 hPa n/a n/a
23/07:00am SE 18-21 kts 26.4°c 1009.0 hPa n/a n/a
23/06:30am ESE 16-19 kts 26.0°c 1008.8 hPa n/a n/a
23/06:00am SE 14-22 kts 25.9°c 1008.6 hPa n/a n/a
23/05:30am SE 15-18 kts 25.8°c 1008.3 hPa n/a n/a
23/05:00am SSE 15-17 kts 26.3°c 1007.9 hPa n/a n/a
23/04:30am SSE 15-18 kts 26.2°c 1008.1 hPa n/a n/a
23/04:00am SSE 16-19 kts 26.4°c 1007.8 hPa n/a n/a
23/03:30am SSE 17-20 kts 25.9°c 1007.7 hPa n/a n/a
23/03:00am SSE 19-21 kts 26.1°c 1007.9 hPa n/a n/a
23/02:30am SSE 18-20 kts 25.6°c 1008.2 hPa n/a n/a
23/02:00am SSE 19-21 kts 25.9°c 1008.3 hPa n/a n/a
23/01:30am SSE 21-24 kts 25.9°c 1008.2 hPa n/a n/a
23/01:00am SSE 19-25 kts 26.1°c 1008.5 hPa n/a n/a
23/12:30am SSE 19-23 kts 26.8°c 1008.6 hPa n/a n/a
23/12:00am SE 19-22 kts 26.9°c 1009.0 hPa n/a n/a